Content
SEND FEEDBACK

Daily
Averages
Monthly
Summary
Italy

FLORENCE - AIRPORT, ITALY


Home > Europe > Italy
Elevation: 125 feet     Latitude: 43 48N     Longitude: 011 12E

WEATHER
 
SELECT A DAY
Number of Records: 250,122;   Date Range: 7/1/96 - 11/27/14
 
SHARE

PRINT THIS DATA

[ ← Previous Day ]
WEATHER ALMANAC - JUNE 26, 2013
[ Next Day → ]
[ °C ]   °F
We're sorry. There is no daily almanac available for Florence - Airport, Italy on June 26, 2013.
WEATHER BY HOUR - JUNE 26, 2013
[ °C ]   °F
Local TimeTemperatureDewpointHumidityBarometerVisibilityWind DirectionWind SpeedGust SpeedPrecipitationEventsConditions
12:50 AM60.8 °F57.2 °F88 %30.04 inENE (70°)5.8 mphClear
1:20 AM62.6 °F57.2 °F82 %30.04 inVariable2.3 mphClear
1:50 AM62.6 °F57.2 °F82 %30.06 in6.2 miVariable2.3 mphPartly Cloudy
2:20 AM64.4 °F57.2 °F77 %30.04 in6.2 miSSW (210°)3.5 mphPartly Cloudy
2:50 AM60.8 °F55.4 °F82 %30.04 in6.2 miCalmPartly Cloudy
3:20 AM60.8 °F57.2 °F88 %30.04 in6.2 miWNW (290°)2.3 mphPartly Cloudy
3:50 AM59.0 °F55.4 °F88 %30.04 in6.2 miCalmPartly Cloudy
4:20 AM59.0 °F57.2 °F94 %30.04 inVariable2.3 mphClear
4:50 AM59.0 °F55.4 °F88 %30.04 inCalmClear
5:20 AM57.2 °F53.6 °F88 %30.04 inVariable1.2 mphClear
5:50 AM57.2 °F55.4 °F94 %30.06 inCalmClear
6:20 AM59.0 °F57.2 °F94 %30.06 inSSE (150°)3.5 mphClear
6:50 AM60.8 °F57.2 °F88 %30.06 inSouth (190°)3.5 mphClear
7:20 AM64.4 °F55.4 °F73 %30.06 inVariable5.8 mphClear
7:50 AM66.2 °F53.6 °F64 %30.09 inVariable3.5 mphClear
8:20 AM68.0 °F51.8 °F56 %30.09 inWest (270°)5.8 mphClear
8:50 AM68.0 °F50.0 °F52 %30.09 in6.2 miVariable5.8 mphPartly Cloudy
9:20 AM68.0 °F51.8 °F56 %30.09 in6.2 miVariable2.3 mphPartly Cloudy
9:50 AM69.8 °F51.8 °F53 %30.09 in6.2 miSW (230°)5.8 mphPartly Cloudy
10:20 AM69.8 °F51.8 °F53 %30.09 inSSW (200°)4.6 mphClear
10:50 AM71.6 °F51.8 °F50 %30.09 inVariable3.5 mphClear
11:20 AM73.4 °F50.0 °F44 %30.09 inVariable4.6 mph20.7 mphClear
11:50 AM73.4 °F50.0 °F44 %30.09 inNE (40°)6.9 mphClear
12:20 PM75.2 °F48.2 °F38 %30.09 inVariable3.5 mphClear
12:50 PM75.2 °F50.0 °F41 %30.09 inNorth (10°)9.2 mphClear
1:20 PM75.2 °F50.0 °F41 %30.09 inNNE (30°)11.5 mphClear
1:50 PM77.0 °F50.0 °F39 %30.09 inNorth (360°)9.2 mphClear
2:20 PM77.0 °F50.0 °F39 %30.09 in6.2 miNorth (10°)9.2 mph20.7 mphPartly Cloudy
2:50 PM77.0 °F50.0 °F39 %30.06 inNorth (360°)10.4 mphClear
3:20 PM77.0 °F50.0 °F39 %30.06 in6.2 miNE (40°)11.5 mphPartly Cloudy
3:50 PM75.2 °F48.2 °F38 %30.06 in6.2 miNNW (340°)8.1 mphScattered Clouds
4:20 PM71.6 °F53.6 °F53 %30.06 in6.2 miWSW (250°)9.2 mphRainLight Rain
4:50 PM75.2 °F51.8 °F44 %30.06 in6.2 miWest (280°)6.9 mphPartly Cloudy
5:20 PM75.2 °F51.8 °F44 %30.06 in6.2 miNW (320°)6.9 mphPartly Cloudy
5:50 PM75.2 °F50.0 °F41 %30.06 in6.2 miNorth (360°)6.9 mphPartly Cloudy
6:20 PM73.4 °F51.8 °F47 %30.06 in6.2 miNorth (10°)9.2 mphScattered Clouds
6:50 PM75.2 °F53.6 °F47 %30.06 in6.2 miNNE (20°)6.9 mphScattered Clouds
7:20 PM73.4 °F50.0 °F44 %30.06 in6.2 miNNW (340°)8.1 mphPartly Cloudy
7:50 PM71.6 °F51.8 °F50 %30.06 in6.2 miNNE (20°)5.8 mphScattered Clouds
8:20 PM71.6 °F51.8 °F50 %30.09 in6.2 miNNE (30°)5.8 mphScattered Clouds
8:50 PM69.8 °F50.0 °F49 %30.09 in6.2 miNE (40°)8.1 mphScattered Clouds
9:20 PM69.8 °F50.0 °F49 %30.09 in6.2 miNorth (10°)6.9 mphScattered Clouds
9:50 PM68.0 °F50.0 °F52 %30.12 in6.2 miNNW (330°)8.1 mphPartly Cloudy
10:20 PM68.0 °F51.8 °F56 %30.12 in6.2 miNorth (350°)9.2 mphPartly Cloudy
10:50 PM66.2 °F50.0 °F56 %30.12 in6.2 miNorth (350°)5.8 mphPartly Cloudy
11:20 PM66.2 °F51.8 °F60 %30.12 in6.2 miNorth (360°)5.8 mphPartly Cloudy
11:50 PM64.4 °F50.0 °F59 %30.15 in6.2 miVariable2.3 mphPartly Cloudy
Hourly data recorded from LIRQ, located miles away from Florence - Airport, Italy







STORIES FROM OUR PARTNERS